Location: Newark
(53.3333°N, 83.7500°E)
Time: 20:04:29
(UTC+00:00)

N. Korean satellite - Pass Details

Date: 01 October 2020
Orbit: 452 x 505 km, 97.2° (Epoch: 28 October)

Event Time Altitude Azimuth Distance (km) Brightness Sun altitude
Rises 23:04:18 0° 26° (NNE) 2,584 10.8 -13.3°
Reaches altitude 10° 23:06:57 10° 47° (NE) 1,684 10.2 -12.9°
Maximum altitude 23:09:26 17° 90° (E) 1,276 9.9 -12.6°
Drops below altitude 10° 23:11:52 10° 134° (SE) 1,652 9.8 -12.2°
Sets 23:14:26 0° 154° (SSE) 2,513 10.4 -11.8°
